Skip Page Navigation
NASA JPL Caltech
NASA Logo - Jet Propulsion Laboratory + View the NASA Portal
+ Near-Earth Object (NEO) Program
Search JPL
JPL Home Earth Solar System Stars & Galaxies Technology
JPL Solar System Dynamics
BODIES ORBITS EPHEMERIDES TOOLS PHYSICAL DATA DISCOVERY FAQ SITE MAP
JPL Small-Body Database Browser
Search: [ help ]  
11392 Paulpeeters (1998 WC3)
Classification: Main-belt Asteroid          SPK-ID: 2011392
Ephemeris | Orbit Diagram | Orbital Elements | Physical Parameters | Discovery Circumstances | Close-Approach Data ]

[ show orbit diagram ]
Orbital Elements at Epoch 2456800.5 (2014-May-23.0) TDB
Reference: JPL 8 (heliocentric ecliptic J2000)
 Element Value Uncertainty (1-sigma)   Units 
e .0175294529410074 6.1206e-08  
a 2.723323293276206 2.8376e-08 AU
q 2.675584925763572 1.5829e-07 AU
i 6.250754217268088 6.0366e-06 deg
node 114.6160422340267 7.1797e-05 deg
peri 338.4648733661834 0.0002436 deg
M 196.8597577133357 0.00023351 deg
tp 2457544.385049014802
(2016-Jun-04.88504901)
0.0010657 JED
period 1641.523966690955
4.49
2.5656e-05
7.024e-08
d
yr
n .2193084032307498 3.4277e-09 deg/d
Q 2.771061660788841 2.8874e-08 AU
  Orbit Determination Parameters
   # obs. used (total)      730  
   data-arc span      8429 days (23.08 yr)  
   first obs. used      1991-06-06  
   last obs. used      2014-07-04  
   planetary ephem.      DE431  
   SB-pert. ephem.      SB431-BIG16  
   condition code      0  
   fit RMS      .544  
   data source      ORB  
   producer      Otto Matic  
   solution date      2014-Jul-14 12:26:10  

Additional Information
 Earth MOID = 1.69285 AU 
 T_jup = 3.349 
[ show covariance matrix ]

Ephemeris | Orbit Diagram | Orbital Elements | Physical Parameters | Discovery Circumstances | Close-Approach Data ]

Physical Parameter Table
Parameter Symbol Value Units Sigma Reference Notes
absolute magnitude H 13.9 mag n/a MPO267752  

11392 Paulpeeters           Discovered 1998 Nov. 19 by the OCA-DLR Asteroid Survey at Caussols.
Paul Peeters (b. 1946) is a Belgian amateur astronomer who started to observe eruptive and pulsating variable stars with the Mira astronomy club in Grimbergen. He has an observatory in Keerbergen and by day he is a judo teacher.
NOTE: some special characters may not display properly (any characters within {} are an attempt to place the proper accent above a character)
Reference: 20120831/MPCPages.arcLast Updated: 2012-09-04

[ show close-approach data ]
Alternate Designations
 1998 WC3 = 1991 LK4 
Ephemeris | Orbit Diagram | Orbital Elements | Physical Parameters | Discovery Circumstances | Close-Approach Data ]
ABOUT SSD CREDITS/AWARDS PRIVACY/COPYRIGHT GLOSSARY LINKS
FirstGov 2014-Jul-23 07:47 UT
(server date/time)  
NASA Home Page
Site Manager:   Donald K. Yeomans
Webmaster  Alan B. Chamberlin